Location: Lafig�re
(44.4503°N, 4.0357°E)
Time: 16:34:15
(UTC+00:00)

Cosmos 1655 Rocket - Pass Details

Date: 24 September 2020
Orbit: 971 x 1005 km, 82.9° (Epoch: 25 October)

Event Time Altitude Azimuth Distance (km) Brightness Sun altitude
Rises 20:29:39 0° 351° (N) 3,692 7.6 -30.2°
Reaches altitude 10° 20:32:10 10° 352° (N) 2,745 6.8 -30.5°
Enters shadow 20:37:51 74° 350° (N) 1,027 4.0 -31.4°
